This is the latest recevied weather packets stored in our database for station/object G4ZMG. If no packets are shown the sender has not sent any weather packets the latest 10 day(s).
| Time | Temp. | Humidity | Pressure | Rain* | Wind** | Luminosity | Snow |
|---|---|---|---|---|---|---|---|
| 1777795223 | 12.22° C | 92% | 1008 hPa | 0 mm | - | 183 W/m² | - |
| 1777794603 | 11.67° C | 94% | 1008.2 hPa | 0 mm | - | 297 W/m² | - |
| 1777794040 | 10.56° C | 95% | 1008.2 hPa | 0 mm | - | 311 W/m² | - |
| 1777793430 | 10.56° C | 95% | 1008.3 hPa | 0 mm | - | 90 W/m² | - |
| 1777792817 | 10.56° C | 95% | 1008.2 hPa | 0 mm | - | 51 W/m² | - |
| 1777792204 | 10.56° C | 95% | 1008.3 hPa | 0 mm | - | 60 W/m² | - |
| 1777791639 | 10.56° C | 95% | 1008.2 hPa | 0 mm | - | 77 W/m² | - |
| 1777791033 | 10.56° C | 95% | 1008.2 hPa | 0 mm | - | 76 W/m² | - |
| 1777790410 | 10.56° C | 95% | 1008.2 hPa | 0 mm | - | 62 W/m² | - |
| 1777789846 | 10° C | 95% | 1008.2 hPa | 0 mm | - | 70 W/m² | - |
| 1777789229 | 10° C | 95% | 1008.1 hPa | 0 mm | - | 74 W/m² | - |
| 1777788604 | 10° C | 95% | 1008 hPa | 0 mm | - | 76 W/m² | - |
| 1777788029 | 10° C | 95% | 1008.1 hPa | 0 mm | - | 49 W/m² | - |
| 1777787411 | 10° C | 95% | 1008 hPa | 0 mm | - | 40 W/m² | - |
| 1777786845 | 10° C | 95% | 1007.9 hPa | 0 mm | - | 39 W/m² | - |
| 1777786234 | 10° C | 95% | 1007.8 hPa | 0 mm | - | 44 W/m² | - |
| 1777785608 | 10° C | 95% | 1007.8 hPa | 0 mm | - | 35 W/m² | - |
| 1777785043 | 10° C | 95% | 1007.9 hPa | 0 mm | - | 18 W/m² | - |
| 1777784407 | 10° C | 95% | 1007.8 hPa | 0 mm | - | 11 W/m² | - |
| 1777783844 | 10° C | 95% | 1007.7 hPa | 0 mm | - | 9 W/m² | - |
| 1777783239 | 10° C | 95% | 1007.7 hPa | 0 mm | - | 0 W/m² | - |
| 1777782632 | 10° C | 95% | 1007.6 hPa | 0 mm | - | 0 W/m² | - |
| 1777782022 | 10° C | 95% | 1007.7 hPa | 0 mm | - | 0 W/m² | - |
| 1777781403 | 10° C | 95% | 1007.8 hPa | 0 mm | - | 0 W/m² | - |
| 1777780844 | 10° C | 95% | 1007.7 hPa | 0 mm | - | 0 W/m² | - |
* Rain latest hour (hover to see other rain measurements)
** Current wind speed in m/s (hover to see current wind gust speed)